map of ORN home
Great Circle Mapper logo
ORN - Airport
Location
City:  Oran, Oran, Algeria
Near (Alt.):Es SÚnia
Name:Es SÚnia International Airport
Old (Alt.):Ahmed Ben Bella AB
ICAO:DAOO
IATA:ORN

Details
Type:Airport (Aerodrome, Airfield)
Use:Public/Civil, Military, International (customs port of entry)
Latitude:35░37'38"N (35.627222)
Longitude:0░36'41"W (-0.611388)
Elevation:299 ft (91 m)
Variation:0.01░E (WMM2015 magnetic declination)
0.11░ annual change
Runways:2
Longest:10039 × 148 ft (3060 × 45 m)

Time
Time Zone:UTC+1
Local Time:

Weather
METAR:DAOO 240800Z 29002KT 8000 FEW013 25/20 Q1017
TAF:DAOO 240500Z 2406/2506 22006KT 8000 SCT013
BECMG 2411/2413 02015KT CAVOK
BECMG 2420/2422 VRB03KT

Related Locations
Nearby:
Farthest:NZOP: 12232 mi / 19686 km
Opotiki, NZ

Find:

   beyond  
but within

Other Information
Maps:
NOTAMs:
Links:
Sources:

  
flag of Algeria   

Sectional Chart

Flight Planning
at skyvector.com

Satellite Image

Google Maps Satellite view

 

Copyright © 2004-2016 Karl L. Swartz. All rights reserved.
The Great Circle Mapper name and logo are trademarks of the Great Circle Mapper.
All other trademarks mentioned herein belong to their respective owners.
Please see credits for attibutions and further copyright information.

  Follow gcmap on Facebook Follow gcmap on Twitter Follow gcmap on Google+ GCmap on LinkedIn

hCard Microformat

Geo Microformat